Weather History for KCON - November, 2011

Change the Weather History Date:

Tuesday, November 22, 2011

  Actual Average Record
Temperature  
Mean Temperature 30 °F 36 °F  
Max Temperature 42 °F 46 °F 72 °F (1931)
Min Temperature 18 °F 27 °F 5 °F (1972)
Degree Days  
Heating Degree Days 35 29  
Month to date heating degree days 486 556  
Since 1 July heating degree days 1067 1315  
Cooling Degree Days 0 0  
Month to date cooling degree days 0 0  
Year to date cooling degree days 561 452  
Moisture  
Dew Point 25 °F    
Average Humidity 76    
Maximum Humidity 96    
Minimum Humidity 55    
Precipitation  
Precipitation 0.02 in 0.12 in 1.44 in (1991)
Month to date precipitation 1.44 2.77  
Year to date precipitation 48.47 36.46  
Snow  
Snow 0.00 in 0.10 in 7.00 in (1872)
Month to date snowfall 0.0 1.2  
Since 1 July snowfall 23.0 1.2  
Since 1 September snowfall 23.0 1.2  
Snow Depth 0.00 in    
Sea Level Pressure  
Sea Level Pressure 30.37 in    
Wind  
Wind Speed 0 mph (West)    
Max Wind Speed 6 mph    
Max Gust Speed 8 mph    
Visibility 10 miles    
Events Rain    
T = Trace of Precipitation, MM = Missing Value Source: NWS Daily Summary

Daily Weather History Graph

Daily Weather History Graph

Search for Another Location

Airport or City:

Trip Planner

Search our weather history database for the weather conditions in past years. The results will help you decide how hot, cold, wet, or windy it might be!

Date:

Astronomy

Nov. 22, 2011 Rise Set
Actual Time 6:47 AM EST 4:16 PM EST
Civil Twilight 6:16 AM EST 4:47 PM EST
Nautical Twilight 5:41 AM EST 5:22 PM EST
Astronomical Twilight 5:07 AM EST 5:56 PM EST
Moon 3:30 AM EST (11/22) 2:16 PM EST (11/22)
Length of Visible Light 10h 31m
Length of Day
9h 29m
Waning Crescent, 9% of the Moon is Illuminated
Nov 22
Waning Crescent
Nov 25
New
Dec 2
First Quarter
Dec 10
Full
Dec 17
Last Quarter

Hourly Weather History & Observations

Time (EST) Temp. Windchill Dew Point Humidity Pressure Visibility Wind Dir Wind Speed Gust Speed Precip Events Conditions
12:51 AM 21.9 °F - 19.9 °F 92% 30.39 in 10.0 mi Calm Calm - N/A   Clear
1:51 AM 21.9 °F - 19.0 °F 89% 30.39 in 10.0 mi Calm Calm - N/A   Clear
2:51 AM 21.0 °F - 18.0 °F 88% 30.38 in 9.0 mi Calm Calm - N/A   Clear
3:51 AM 19.9 °F - 18.0 °F 92% 30.39 in 8.0 mi Calm Calm - N/A   Clear
4:51 AM 19.0 °F - 16.0 °F 88% 30.42 in 10.0 mi Calm Calm - N/A   Clear
5:51 AM 19.9 °F - 18.0 °F 92% 30.43 in 10.0 mi Calm Calm - N/A   Overcast
6:51 AM 21.0 °F - 18.0 °F 88% 30.42 in 9.0 mi Calm Calm - N/A   Clear
7:49 AM 21.2 °F - 19.4 °F 93% 30.39 in 9.0 mi Calm Calm - N/A   Mostly Cloudy
7:51 AM 21.9 °F - 19.9 °F 92% 30.42 in 9.0 mi Calm Calm - N/A   Mostly Cloudy
8:51 AM 27.0 °F - 24.1 °F 89% 30.44 in 10.0 mi Calm Calm - N/A   Overcast
9:46 AM 30.2 °F - 26.6 °F 86% 30.42 in 10.0 mi Calm Calm - N/A   Scattered Clouds
9:51 AM 30.9 °F - 26.1 °F 82% 30.45 in 10.0 mi Calm Calm - N/A   Partly Cloudy
10:51 AM 35.1 °F - 25.0 °F 67% 30.42 in 10.0 mi Calm Calm - N/A   Mostly Cloudy
11:08 AM 35.6 °F - 26.6 °F 70% 30.39 in 10.0 mi Calm Calm - N/A   Overcast
11:51 AM 37.9 °F 35.5 °F 28.9 °F 70% 30.39 in 10.0 mi West 3.5 mph - N/A   Scattered Clouds
12:51 PM 41.0 °F - 28.0 °F 60% 30.37 in 10.0 mi Calm Calm - N/A   Clear
1:51 PM 41.0 °F - 26.1 °F 55% 30.35 in 10.0 mi Calm Calm - N/A   Clear
2:51 PM 39.9 °F - 26.1 °F 58% 30.36 in 10.0 mi Calm Calm - N/A   Clear
3:51 PM 37.9 °F - 27.0 °F 65% 30.34 in 10.0 mi Calm Calm - N/A   Clear
4:51 PM 34.0 °F - 27.0 °F 75% 30.35 in 10.0 mi Calm Calm - N/A   Clear
5:51 PM 33.1 °F - 26.1 °F 75% 30.35 in 10.0 mi Calm Calm - N/A   Clear
6:51 PM 32.0 °F - 27.0 °F 82% 30.34 in 10.0 mi Calm Calm - N/A   Clear
7:51 PM 32.0 °F - 28.0 °F 85% 30.33 in 10.0 mi Calm Calm - N/A   Clear
8:51 PM 32.0 °F - 28.0 °F 85% 30.31 in 10.0 mi Calm Calm - N/A   Mostly Cloudy
9:51 PM 35.1 °F - 28.9 °F 78% 30.29 in 10.0 mi Calm Calm - N/A   Overcast
10:51 PM 35.1 °F - 28.9 °F 78% 30.25 in 10.0 mi Calm Calm - N/A   Overcast
11:27 PM 33.8 °F - 30.2 °F 87% 30.23 in 7.0 mi Calm Calm - 0.00 in Rain Light Rain
11:51 PM 34.0 °F - 32.0 °F 92% 30.24 in 4.0 mi Calm Calm - 0.01 in Rain Light Rain